Regional Weather Roundup
Issued by NWS Charleston, WV

Home | Current Version | Previous Version | Text Only | Print | Product List | Glossary Off
Versions: 1 2 3 4 5 6 7 8 9 10 11 12 13 14 15 16 17 18 19 20 21 22 23 24 25 26 27 28 29 30 31 32 33 34 35 36 37 38 39 40 41 42 43 44 45 46 47 48 49 50

000
ASUS41 KRLX 160710
RWRRLX
West Virginia Regional Weather Roundup
National Weather Service Charleston WV
200 AM EST SAT DEC 16 2017

Note: "fair" indicates few or no clouds below 12,000 feet with no
significant weather and/or obstructions to visibility.

WVZ003-160800-
Northern Panhandle of West Virginia

CITY           SKY/WX    TMP DP  RH WIND       PRES   REMARKS
WHEELING       PTCLDY    27  16  63 SW14G24   30.01S
$$

WVZ009-160800-
Northwest West Virginia

CITY           SKY/WX    TMP DP  RH WIND       PRES   REMARKS
PARKERSBURG    CLOUDY    31  20  63 VRB7      30.12F
$$

WVZ006-160800-
Western West Virginia

CITY           SKY/WX    TMP DP  RH WIND       PRES   REMARKS
HUNTINGTON     CLOUDY    33  20  58 SW9       30.14S
$$

WVZ015-160800-
West Central West Virginia

CITY           SKY/WX    TMP DP  RH WIND       PRES   REMARKS
CHARLESTON     CLOUDY    33  20  58 SW8       30.14S
$$

WVZ022-031-160800-
North Central West Virginia

CITY           SKY/WX    TMP DP  RH WIND       PRES   REMARKS
CLARKSBURG     CLOUDY    31  18  58 SW10      30.08S
MORGANTOWN     CLOUDY    29  15  56 SW10G18   30.05F
$$

WVZ025-035-042-045-160800-
Southern West Virginia

CITY           SKY/WX    TMP DP  RH WIND       PRES   REMARKS
BECKLEY        CLOUDY    27  17  66 W9        30.06F
LOGAN          MOCLDY    30  21  69 SW8       30.13S
BLUEFIELD      CLOUDY    25  16  68 W13G20    30.06S
LEWISBURG      CLOUDY    29  18  63 NW8       30.06S
$$

WVZ047-160800-
Northern Mountains of West Virginia

CITY           SKY/WX    TMP DP  RH WIND       PRES   REMARKS
ELKINS         CLOUDY    27  17  66 W7        30.05R
$$

WVZ052-160800-
Eastern Panhandle of West Virginia

CITY           SKY/WX    TMP DP  RH WIND       PRES   REMARKS
MARTINSBURG    CLOUDY    34  14  43 W22G37    30.02R
PETERSBURG     CLOUDY    32  18  55 W17G25    30.03S
$$



USA.gov is the U.S. government's official web portal to all federal, state and local government web resources and services.